User: anonymous   Login
Location: Caltech
(34.1382°N, 118.1253°W)
Time: 13:26:59
(UTC-08:00)
Language:

SL-16 R/B - Orbit

View from above orbital plane
View from above orbital plane
View from above satellite
View from above satellite

Ground track
Ground track

The orbit data is extracted from the following two-line orbital elements,

1 31793U 07029B   14350.97248736 -.00000234  00000-0 -97240-4 0  1461
2 31793 070.9753 147.2637 0002190 282.2176 221.0621 14.14303746385593
Epoch (UTC): 16 December 2014 23:20:22
Eccentricity: 0.0002190
inclination: 70.9753°
perigee height: 843 km
apogee height: 846 km
right ascension of ascending node: 147.2637°
argument of perigee: 282.2176°
revolutions per day: 14.14303746
mean anomaly at epoch: 221.0621°
orbit number at epoch: 38559

The dashed part of the orbit path shows where the satellite is in the earth's shadow,  

DLR